sat.trackr.live / text

‹ back to catalog

STARLINK-36323

NORAD 68259 · 2026-054AD

PAYLOAD ACTIVE UNKNOWN

§ Identity

Operator
Country
US
Launch date
2026-03-17
Launch site
AFETR
Launch vehicle
Mass (kg)
RCS (m²)

Purposes: comms

External: N2YO · Heavens-Above · Gunter

§ Orbital elements

Epoch: 2026-09-20T02:57:46.302912Z

Period
93.85 min
Inclination
53.1565°
Eccentricity
0.0001227
Mean motion
15.34410393 rev/d
Perigee alt
461.8 km
Apogee alt
463.5 km
Semi-major
6,840.8 km
B*
3.2930e-4
RAAN
103.5820°
Arg perigee
91.1342°
Mean anomaly
268.9801°
Rev number
2,889

§ Raw data

STARLINK-363231 68259U 26054AD  26263.12345258  .00010769  00000+0  32930-3 0  99982 68259  53.1565 103.5820 0001227  91.1342 268.9801 15.34410393 28892

JSON: /api/v1/satellites/68259 · /tle

For live sub-satellite position, see the globe view (requires WebGL).

§ Visibility from observer

Set your observer location to see the next 7 days of passes ≥ 10°. The values pass through the URL so the page stays shareable.

No JS? Fill the form by hand. The geolocation button needs JavaScript.